Hourly Weather Klebany

Today, 25 July, Sunday

Time Temperature Precipitation Wind Pressure Humidity
00:00 +18°C° 0 mm 3 mps 738 mmHg 74%
01:00 +18°C° 0 mm 3 mps 738 mmHg 74%
02:00 +18°C° 0 mm 3 mps 738 mmHg 73%
03:00 +17°C° 0 mm 3 mps 738 mmHg 73%
04:00 +17°C° 0 mm 3 mps 738 mmHg 74%
05:00 +17°C° 0 mm 3 mps 738 mmHg 74%
06:00 +19°C° 0 mm 3 mps 738 mmHg 71%
07:00 +20°C° 0 mm 3 mps 738 mmHg 69%
08:00 +21°C° 0 mm 3 mps 738 mmHg 67%
09:00 +24°C° 0 mm 3 mps 738 mmHg 62%
10:00 +25°C° 0 mm 4 mps 739 mmHg 58%
11:00 +27°C° 0 mm 4 mps 739 mmHg 53%
12:00 +27°C° 0 mm 4 mps 739 mmHg 51%
13:00 +28°C° 0 mm 4 mps 738 mmHg 48%
14:00 +29°C° 0 mm 4 mps 738 mmHg 45%
15:00 +29°C° 0 mm 4 mps 738 mmHg 47%
16:00 +28°C° 0 mm 4 mps 738 mmHg 49%
17:00 +28°C° 0 mm 4 mps 738 mmHg 51%
18:00 +27°C° 0.1 mm 3 mps 738 mmHg 59%
19:00 +25°C° 0.1 mm 3 mps 738 mmHg 66%
20:00 +22°C° 0.1 mm 3 mps 738 mmHg 73%
21:00 +22°C° 0 mm 3 mps 738 mmHg 74%
22:00 +22°C° 0 mm 3 mps 737 mmHg 74%
23:00 +21°C° 0 mm 3 mps 737 mmHg 75%

Tomorrow, 26 July, Monday

Time Temperature Precipitation Wind Pressure Humidity
00:00 +21°C° 0 mm 3 mps 737 mmHg 75%
01:00 +20°C° 0 mm 3 mps 737 mmHg 75%
02:00 +20°C° 0 mm 3 mps 737 mmHg 75%
03:00 +19°C° 0 mm 3 mps 737 mmHg 76%
04:00 +19°C° 0 mm 3 mps 737 mmHg 77%
05:00 +19°C° 0 mm 3 mps 737 mmHg 78%
06:00 +19°C° 0 mm 3 mps 737 mmHg 76%
07:00 +20°C° 0 mm 3 mps 737 mmHg 74%
08:00 +21°C° 0 mm 3 mps 737 mmHg 72%
09:00 +22°C° 0 mm 3 mps 737 mmHg 70%
10:00 +24°C° 0 mm 3 mps 738 mmHg 67%
11:00 +25°C° 0 mm 3 mps 738 mmHg 65%
12:00 +27°C° 0 mm 4 mps 738 mmHg 60%
13:00 +28°C° 0 mm 4 mps 737 mmHg 55%
14:00 +30°C° 0 mm 4 mps 737 mmHg 50%
15:00 +29°C° 0 mm 5 mps 737 mmHg 53%
16:00 +29°C° 0 mm 5 mps 737 mmHg 56%
17:00 +29°C° 0 mm 5 mps 737 mmHg 59%
18:00 +27°C° 0.6 mm 5 mps 736 mmHg 65%
19:00 +26°C° 0.6 mm 5 mps 736 mmHg 71%
20:00 +25°C° 0.6 mm 5 mps 736 mmHg 78%
21:00 +22°C° 0.8 mm 4 mps 736 mmHg 81%
22:00 +21°C° 0.8 mm 3 mps 736 mmHg 85%
23:00 +20°C° 0.8 mm 3 mps 736 mmHg 88%

Day after tomorrow, 27 July, Tuesday

Time Temperature Precipitation Wind Pressure Humidity
00:00 +19°C° 0.2 mm 2 mps 736 mmHg 89%
01:00 +19°C° 0.2 mm 2 mps 736 mmHg 90%
02:00 +19°C° 0.2 mm 2 mps 736 mmHg 91%
03:00 +19°C° 0.1 mm 2 mps 736 mmHg 91%
04:00 +19°C° 0.1 mm 2 mps 736 mmHg 90%
05:00 +19°C° 0.1 mm 2 mps 735 mmHg 90%
06:00 +21°C° 0.2 mm 2 mps 736 mmHg 85%
07:00 +23°C° 0.2 mm 2 mps 736 mmHg 80%
08:00 +25°C° 0.2 mm 3 mps 736 mmHg 75%
09:00 +26°C° 0 mm 3 mps 736 mmHg 68%
10:00 +28°C° 0 mm 4 mps 736 mmHg 61%
11:00 +30°C° 0 mm 4 mps 737 mmHg 54%
12:00 +30°C° 0 mm 4 mps 737 mmHg 54%
13:00 +30°C° 0 mm 5 mps 737 mmHg 54%
14:00 +30°C° 0 mm 5 mps 736 mmHg 54%
15:00 +30°C° 0 mm 5 mps 737 mmHg 57%
16:00 +29°C° 0 mm 4 mps 737 mmHg 60%
17:00 +29°C° 0 mm 4 mps 737 mmHg 64%
18:00 +27°C° 0 mm 3 mps 737 mmHg 69%
19:00 +26°C° 0 mm 3 mps 736 mmHg 75%
20:00 +24°C° 0 mm 2 mps 736 mmHg 81%
21:00 +24°C° 0.2 mm 2 mps 737 mmHg 83%
22:00 +23°C° 0.2 mm 1 mps 737 mmHg 85%
23:00 +22°C° 0.2 mm 1 mps 737 mmHg 87%

28 July, Wednesday

Time Temperature Precipitation Wind Pressure Humidity
00:00 +22°C° 0.3 mm 1 mps 737 mmHg 88%
01:00 +21°C° 0.3 mm 1 mps 737 mmHg 89%
02:00 +21°C° 0.3 mm 1 mps 737 mmHg 89%
03:00 +21°C° 0 mm 1 mps 737 mmHg 90%
04:00 +19°C° 0 mm 2 mps 737 mmHg 91%
05:00 +19°C° 0 mm 2 mps 737 mmHg 91%
06:00 +20°C° 0 mm 2 mps 737 mmHg 86%
07:00 +23°C° 0 mm 2 mps 737 mmHg 80%
08:00 +25°C° 0 mm 2 mps 738 mmHg 74%
09:00 +26°C° 0 mm 2 mps 738 mmHg 66%
10:00 +28°C° 0 mm 1 mps 738 mmHg 57%
11:00 +30°C° 0 mm 1 mps 738 mmHg 48%
12:00 +30°C° 0 mm 1 mps 738 mmHg 46%
13:00 +31°C° 0 mm 1 mps 737 mmHg 45%
14:00 +31°C° 0 mm 1 mps 737 mmHg 43%
15:00 +31°C° 0 mm 2 mps 737 mmHg 47%
16:00 +30°C° 0 mm 2 mps 736 mmHg 50%
17:00 +30°C° 0 mm 3 mps 736 mmHg 54%
18:00 +27°C° 1.3 mm 3 mps 736 mmHg 65%
19:00 +25°C° 1.3 mm 3 mps 736 mmHg 76%
20:00 +22°C° 1.3 mm 3 mps 736 mmHg 87%
21:00 +21°C° 2.3 mm 4 mps 736 mmHg 89%
22:00 +20°C° 2.3 mm 4 mps 736 mmHg 91%
23:00 +20°C° 2.3 mm 5 mps 736 mmHg 94%

29 July, Thursday

Time Temperature Precipitation Wind Pressure Humidity
00:00 +20°C° 0.1 mm 4 mps 735 mmHg 94%
01:00 +19°C° 0.1 mm 2 mps 735 mmHg 95%
02:00 +20°C° 0.1 mm 1 mps 735 mmHg 96%
03:00 +19°C° 1.1 mm 2 mps 735 mmHg 96%
04:00 +19°C° 1.1 mm 2 mps 736 mmHg 97%
05:00 +18°C° 1.1 mm 3 mps 736 mmHg 98%
06:00 +19°C° 0.6 mm 3 mps 736 mmHg 96%
07:00 +19°C° 0.6 mm 3 mps 736 mmHg 95%
08:00 +20°C° 0.6 mm 3 mps 736 mmHg 93%
09:00 +21°C° 0.1 mm 3 mps 737 mmHg 90%
10:00 +21°C° 0.1 mm 3 mps 737 mmHg 86%
11:00 +22°C° 0.1 mm 4 mps 737 mmHg 82%
12:00 +23°C° 0.1 mm 4 mps 737 mmHg 79%
13:00 +23°C° 0.1 mm 4 mps 737 mmHg 75%
14:00 +25°C° 0.1 mm 5 mps 737 mmHg 72%
15:00 +25°C° 0.1 mm 4 mps 737 mmHg 71%
16:00 +25°C° 0.1 mm 4 mps 737 mmHg 70%
17:00 +25°C° 0.1 mm 4 mps 737 mmHg 69%
18:00 +24°C° 0 mm 3 mps 737 mmHg 73%
19:00 +22°C° 0 mm 3 mps 737 mmHg 77%
20:00 +21°C° 0 mm 2 mps 737 mmHg 81%
21:00 +20°C° 0 mm 2 mps 737 mmHg 83%
22:00 +21°C° 0 mm 1 mps 737 mmHg 85%
23:00 +20°C° 0 mm 1 mps 737 mmHg 87%

30 July, Friday

Time Temperature Precipitation Wind Pressure Humidity
00:00 +19°C° 0 mm 1 mps 737 mmHg 87%
01:00 +19°C° 0 mm 1 mps 737 mmHg 88%
02:00 +19°C° 0 mm 1 mps 737 mmHg 88%
03:00 +18°C° 0 mm 1 mps 737 mmHg 89%
04:00 +18°C° 0 mm 1 mps 737 mmHg 89%
05:00 +18°C° 0 mm 1 mps 737 mmHg 90%
06:00 +20°C° 0 mm 1 mps 737 mmHg 84%
07:00 +21°C° 0 mm 1 mps 737 mmHg 79%
08:00 +23°C° 0 mm 1 mps 737 mmHg 73%
09:00 +25°C° 0 mm 1 mps 736 mmHg 68%
10:00 +26°C° 0 mm 2 mps 736 mmHg 62%
11:00 +27°C° 0 mm 2 mps 736 mmHg 56%
12:00 +28°C° 0 mm 2 mps 736 mmHg 53%
13:00 +29°C° 0 mm 2 mps 736 mmHg 51%
14:00 +30°C° 0 mm 2 mps 735 mmHg 48%
15:00 +30°C° 0 mm 2 mps 735 mmHg 49%
16:00 +30°C° 0 mm 2 mps 735 mmHg 50%
17:00 +30°C° 0 mm 2 mps 734 mmHg 51%
18:00 +28°C° 0 mm 3 mps 734 mmHg 60%
19:00 +26°C° 0 mm 3 mps 734 mmHg 68%
20:00 +25°C° 0 mm 3 mps 733 mmHg 77%
21:00 +24°C° 0 mm 2 mps 733 mmHg 78%
22:00 +23°C° 0 mm 2 mps 733 mmHg 80%
23:00 +21°C° 0 mm 2 mps 733 mmHg 82%
Show more